Home   Weather   Itumbiara   Past weeks
Flag for Brazil

Past Weather in Itumbiara, Goiás, Brazil — Yesterday and Last 2 Weeks

Now
68 °F

Clear.


Feels Like: 68 °F
Forecast: 92 / 61 °F
Wind: 12 mph from Southwest

Location: Uberlandia Airport

Current Time: Aug 23, 2019 at 2:44:13 am

Latest Report: Aug 23, 2019 at 12:00 am


Visibility: 10 mi

Pressure: 30.21 "Hg

Humidity: 46%

Dew Point: 46 °F

Location of ItumbiaraLocation

Past Weather in Itumbiara — Graph

°F

Itumbiara Temperature Yesterday

Maximum temperature yesterday: 88 °F (at 2:00 pm)
Minimum temperature yesterday: 64 °F (at 4:00 am)
Average temperature yesterday: 74 °F

High & Low Weather Summary for the Past Weeks

 TemperatureHumidityPressure
High88 °F (Aug 22, 2:00 pm)82% (Aug 8, 4:00 am)30.36 "Hg (Aug 8, 4:00 am)
Low55 °F (Aug 16, 6:00 am)16% (Aug 11, 11:00 pm)30.07 "Hg (Aug 19, 4:00 pm)
Average72 °F45%30.20 "Hg
* Reported Aug 8 12:00 am — Aug 23 12:00 am, Itumbiara. Weather by CustomWeather, © 2019

Note: Actual official high and low records may vary slightly from our data, if they occured in-between our weather recording intervals... More about our weather records

Advertising

Itumbiara Weather History for the Previous 24 Hours

Scroll right to see more
 ConditionsComfort  
Time TempWeatherWind HumidityBarometerVisibility
12:00 am
Fri, Aug 23
68 °FClear.12 mph46%30.21 "Hg10 mi
11:00 pm
Thu, Aug 22
70 °FClear.10 mph43%30.21 "Hg10 mi
10:00 pm70 °FClear.8 mph46%30.21 "Hg10 mi
8:00 pm73 °FClear.7 mph36%30.18 "Hg10 mi
7:00 pm77 °FClear.7 mph30%30.15 "Hg10 mi
6:00 pm81 °FSunny.13 mph26%30.15 "Hg10 mi
4:00 pm86 °FClear.12 mph22%30.12 "Hg5 mi
3:00 pm88 °FClear.10 mph21%30.12 "Hg5 mi
2:00 pm88 °FClear.6 mph21%30.15 "Hg4 mi
11:00 am81 °FClear.6 mph32%30.24 "Hg5 mi
7:00 am66 °FClear.10 mph56%30.18 "Hg4 mi
6:00 am66 °FClear.13 mph56%30.15 "Hg10 mi
5:00 am66 °FClear.9 mph60%30.15 "Hg10 mi
4:00 am64 °FClear.9 mph64%30.15 "Hg10 mi
3:00 am66 °FClear.12 mph60%30.15 "Hg10 mi
2:00 am66 °FClear.12 mph60%30.15 "Hg10 mi
Weather by CustomWeather, © 2019

See weather overview